Simultaneous Nadir Overpasses (SNOs) Predictions

Prediction of SNOs between GOES-16 and METOP-B Satellite Orbit:

Table of predicted SNOs for the next 14.0 days since TLE Epoch: 8/2/2019
Index Date Time (GOES-16) GOES-16 Lat,Lon METOP-B Lat,Lon Distance(km) Time Diff (sec)
1 08/04/2019 02:38:53 0.01, -75.24 -0.36, -76.93 193.32 80
2 08/05/2019 02:15:33 0.01, -75.25 0.75, -71.94 376.97 80
3 08/06/2019 14:37:05 -0.01, -75.27 0.29, -76.49 140.36 80
4 08/07/2019 14:13:45 -0.01, -75.28 -0.83, -71.50 430.38 80
5 08/09/2019 02:35:26 0.01, -75.31 -0.20, -76.10 90.46 80
6 08/10/2019 02:12:07 0.01, -75.33 0.98, -71.11 480.54 80
7 08/11/2019 14:33:38 -0.00, -75.35 0.05, -75.67 35.83 80
8 08/14/2019 02:29:19 0.01, -75.41 0.04, -75.27 15.72 80
9 08/15/2019 14:50:51 -0.00, -75.45 0.98, -79.83 499.58 80
10 08/16/2019 14:27:31 -0.01, -75.48 -0.13, -74.84 72.38 80




NCC Satellite Simultaneous Nadir Overpasses (SNOs) Prediction Service
